Location: Unspecified
(48.7670°N, 0.0000°E)
Time: 03:25:51
(UTC+00:00)

Altair - Pass Details

Date: 04 July 2019
Orbit: 1501 x 1683 km, 47.2° (Epoch: 17 July)

Event Time Altitude Azimuth Distance (km) Brightness Sun altitude
Rises 19:36:03 0° 270° (W) 4,687 11.2 3.2°
Reaches altitude 10° 19:39:02 10° 270° (W) 3,724 10.7 2.8°
Maximum altitude 19:48:30 82° 185° (S) 1,604 7.7 1.5°
Drops below altitude 10° 19:58:22 10° 100° (E) 3,867 9.1 0.1°
Sets 20:01:32 0° 99° (E) 4,874 9.6 -0.3°
